RS-38S
1 57189U 23091Z   26195.82644110  .00009794  00000-0  27391-3 0  9998
2 57189  97.5083 265.8802 0005709 341.2489  18.8544 15.36867267168935
SONATE-2
1 59112U 24043Q   26195.40405809  .00029401  00000-0  35358-3 0  9997
2 59112  97.5552 347.5164 0006864 108.7860 251.4142 15.60784505132137
GRBBeta
1 60237U 24128C   26195.49587608  .00001784  00000-0  13203-3 0  9997
2 60237  61.9898 120.4410 0037143 140.4689 219.9124 15.06805905110383
Curium One
1 60242U 24128H   26195.47060171  .00003980  00000-0  23452-3 0  9999
2 60242  61.9787 109.1153 0036547 136.2113 224.1891 15.12860070110588
ROBUSTA-3A
1 60243U 24128J   26195.84780419  .00004200  00000-0  25238-3 0  9995
2 60243  61.9865 110.4041 0038177 133.7963 226.6301 15.11984550110608
CatSat
1 60246U 24125J   26195.65097894  .00045148  00000-0  50846-3 0  9991
2 60246  97.2057  48.5754 0020480  85.2437 275.1160 15.62168848111673
HYPERVIEW-1G (RS66S)
1 61772U 24199AP  26194.97856389  .00176797  00000-0  74626-3 0  9990
2 61772  97.2813  76.2153 0008247 151.3914 208.7811 15.84916828138904
AO-123
1 61781U 24199AY  26195.78945729  .00004377  00000-0  12669-3 0  9990
2 61781  97.2963  64.2136 0012963 202.1972 157.8712 15.36050023138162
JINJUSat 1B
1 63210U 25052A   26195.67468284  .00009653  00000-0  29259-3 0  9997
2 63210  97.3971  92.4788 0003278  29.9021 330.2409 15.34342100 74310
NUSHSAT 1
1 63211U 25052B   26195.67226115  .00012410  00000-0  34463-3 0  9991
2 63211  97.3949  93.1409 0003244  40.4172 319.7313 15.37028255 74368
TEVEL2-4
1 63213U 25052D   26195.69012353  .00010349  00000-0  30168-3 0  9999
2 63213  97.3873  92.1411 0003582  52.7606 307.3964 15.35555371 74335
TEVEL2-5
1 63214U 25052E   26195.71383550  .00010851  00000-0  31806-3 0  9991
2 63214  97.3870  92.1047 0003639  54.2454 305.9128 15.35369597 74338
TEVEL2-6
1 63215U 25052F   26195.66162234  .00010923  00000-0  32054-3 0  9996
2 63215  97.3876  92.0373 0003680  56.3552 303.8042 15.35331616 74326
TEVEL2-1
1 63217U 25052H   26195.63531657  .00009885  00000-0  29557-3 0  9993
2 63217  97.3846  91.6018 0004319  61.6960 298.4718 15.34761887 74301
TEVEL2-3
1 63218U 25052J   26195.69409509  .00009878  00000-0  29479-3 0  9995
2 63218  97.3851  91.6861 0004049  62.6688 297.4967 15.34825600 74312
TEVEL2-2
1 63219U 25052K   26195.70064647  .00009938  00000-0  29703-3 0  9995
2 63219  97.3843  91.6701 0004354  61.5612 298.6069 15.34774244 74314
TEVEL2-9
1 63237U 25052AD  26195.64897022  .00009574  00000-0  30513-3 0  9996
2 63237  97.3910  90.9324 0007720  58.9177 301.2822 15.32721747 74235
TEVEL2-7
1 63238U 25052AE  26195.69534027  .00009140  00000-0  29430-3 0  9990
2 63238  97.3908  90.8827 0007786  58.0835 302.1163 15.32406537 74239
TEVEL2-8
1 63239U 25052AF  26195.70385766  .00009092  00000-0  29291-3 0  9998
2 63239  97.3909  90.8675 0007827  59.1574 301.0437 15.32392229 74234
SPIRONE
1 66657U 25274H   26195.78934421  .00000758  00000-0  77088-4 0  9995
2 66657  97.7474 124.6874 0010450 285.1231  74.8832 14.93651407 34340
K-HERO
1 66660U 25274L   26195.78630954  .00000593  00000-0  60895-4 0  9998
2 66660  97.7481 124.8659 0012382 289.5745  70.4138 14.94059972 34351
SNUGLITE-III DURI
1 66661U 25274M   26195.77345394  .00000644  00000-0  65541-4 0  9999
2 66661  97.7479 124.8740 0012993 290.7043  69.2784 14.94090504 34352
SAKHACUBE-CHOLBON
1 67290U 25313AU  26195.19176754  .00005205  00000-0  20916-3 0  9994
2 67290  97.3930 269.8959 0007714 255.3435 104.6948 15.25349644 30098
RS95S (QMR-KWT-2)
1 67291U 25313AV  26195.74312723  .00007811  00000-0  29756-3 0  9990
2 67291  97.3926 270.6776 0007484 248.6485 111.3956 15.26969682 30191
Ten-Koh2
1 68261U 25241B   26195.35955959  .00002456  00000-0  11318-3 0  9994
2 68261  51.6586 190.2854 0004557 227.2340 132.8255 15.24168099 19052
JACK-002
1 68417U 26067B   26195.42361632  .00003761  00000-0  17931-3 0  9998
2 68417  97.4582 153.6858 0002979 135.9397 224.2076 15.19708690 16087
DISCO 2
1 68431U 26067R   26195.84493226  .00004283  00000-0  20516-3 0  9998
2 68431  97.4614 154.0914 0000582 166.4033 193.7217 15.19466696 16142
HADES-SA (SpinnyONE)
1 68446U 26067AG  26195.41861502  .00010208  00000-0  47705-3 0  9996
2 68446  97.4413 153.3262 0006150   7.1252 353.0069 15.19966338 16069
PARUS-6U1
1 68456U 26067AS  26195.81430150  .00003014  00000-0  15245-3 0  9993
2 68456  97.4567 153.7605 0004772 349.8801  10.2336 15.17792020 16128
SAL-E
1 68458U 26067AU  26195.80439668  .00003950  00000-0  19678-3 0  9990
2 68458  97.4492 153.6716 0005315   0.8960 359.2283 15.18136117 16120
FSI-SAT 2
1 68792U 26088A   26195.37750089  .00002008  00000-0  13783-3 0  9993
2 68792  97.5091 343.9616 0014585  20.2907 339.8897 15.07034242 12389
OrigamiSat 2
1 68795U 26088D   26195.34893916  .00006541  00000-0  41317-3 0  9990
2 68795  97.5100 344.1566 0014178 350.0709  10.0238 15.09314389 12395
ARICA 2
1 68796U 26088E   26195.82159050  .00002399  00000-0  15697-3 0  9997
2 68796  97.5092 344.5851 0015045 349.2867  10.8039 15.08629000 12469
WASEDA-SAT-ZERO-II
1 68797U 26088F   26195.41468679  .00003123  00000-0  20145-3 0  9993
2 68797  97.5089 344.2057 0014799 350.4069   9.6874 15.08926345 12403
MANGARO-II-Piscus
1 68798U 26088G   26195.80141554  .00001540  00000-0  10118-3 0  9997
2 68798  97.5100 344.6204 0018495 351.4594   8.6317 15.08966024 12462
IO-86
1 40931U          25360.30710720  .00000000  00000-0  12800-3 0    00
2 40931   6.0006 332.5373 0012733 338.8432   8.1437 14.79075515    01
LILIUM-4                
1 71922C 26067AC  26089.50133053 -.00014632  00000+0 -74472-3 0    04
2 71922  97.4497  49.1617 0004341   5.9603 355.7042 15.16896692    16
